TimeEDT,TemperatureF,Dew PointF,Humidity,Sea Level PressureIn,VisibilityMPH,Wind Direction,Wind SpeedMPH,Gust SpeedMPH,PrecipitationIn,Events,Conditions,WindDirDegrees,DateUTC
12:53 AM,68.0,64.0,87,29.94,10.0,Calm,Calm,-,N/A,,Clear,0,2013-07-12 04:53:00
1:53 AM,66.0,63.0,90,29.95,10.0,Calm,Calm,-,N/A,,Clear,0,2013-07-12 05:53:00
2:53 AM,66.0,63.0,90,29.96,10.0,Calm,Calm,-,N/A,,Partly Cloudy,0,2013-07-12 06:53:00
3:53 AM,66.0,61.0,84,29.97,10.0,Calm,Calm,-,N/A,,Scattered Clouds,0,2013-07-12 07:53:00
4:53 AM,66.0,61.0,84,29.99,10.0,Calm,Calm,-,N/A,,Clear,0,2013-07-12 08:53:00
5:53 AM,64.9,61.0,87,30.00,10.0,North,3.5,-,N/A,,Clear,10,2013-07-12 09:53:00
6:53 AM,66.0,61.0,84,30.02,10.0,North,6.9,-,N/A,,Scattered Clouds,10,2013-07-12 10:53:00
7:53 AM,70.0,61.0,73,30.04,10.0,NNE,10.4,-,N/A,,Partly Cloudy,30,2013-07-12 11:53:00
8:53 AM,73.0,61.0,66,30.04,10.0,North,10.4,-,N/A,,Partly Cloudy,10,2013-07-12 12:53:00
9:53 AM,75.0,63.0,66,30.04,10.0,North,8.1,-,N/A,,Clear,10,2013-07-12 13:53:00
10:53 AM,77.0,61.0,58,30.05,10.0,NE,6.9,-,N/A,,Mostly Cloudy,40,2013-07-12 14:53:00
11:53 AM,79.0,62.1,56,30.05,10.0,NNE,10.4,16.1,N/A,,Mostly Cloudy,30,2013-07-12 15:53:00
12:53 PM,81.0,63.0,54,30.04,10.0,Variable,4.6,-,N/A,,Mostly Cloudy,0,2013-07-12 16:53:00
1:53 PM,80.1,64.0,58,30.04,10.0,ENE,6.9,-,N/A,,Overcast,70,2013-07-12 17:53:00
2:53 PM,80.1,66.0,62,30.04,10.0,East,3.5,-,N/A,,Overcast,80,2013-07-12 18:53:00
3:53 PM,81.0,66.0,60,30.04,10.0,East,6.9,-,N/A,,Scattered Clouds,100,2013-07-12 19:53:00
4:53 PM,80.1,64.9,60,30.04,10.0,East,9.2,-,N/A,,Clear,80,2013-07-12 20:53:00
5:53 PM,79.0,64.9,62,30.05,10.0,ENE,5.8,-,N/A,,Partly Cloudy,70,2013-07-12 21:53:00
6:53 PM,78.1,64.9,64,30.06,10.0,ENE,4.6,-,N/A,,Partly Cloudy,70,2013-07-12 22:53:00
7:53 PM,77.0,64.0,64,30.07,10.0,East,4.6,-,N/A,,Clear,80,2013-07-12 23:53:00
8:53 PM,75.9,63.0,64,30.07,10.0,East,6.9,-,0.00,Rain,Light Rain,80,2013-07-13 00:53:00
9:53 PM,75.0,61.0,62,30.10,10.0,East,11.5,19.6,N/A,,Overcast,100,2013-07-13 01:53:00
10:53 PM,73.9,57.9,57,30.11,10.0,ENE,4.6,-,0.00,Rain,Light Rain,70,2013-07-13 02:53:00
11:53 PM,71.1,59.0,66,30.13,10.0,ENE,6.9,-,0.00,Rain,Light Rain,70,2013-07-13 03:53:00